Flag for Germany Weather past 2 weeks in Kreuztal, North Rhine-Westphalia, Germany

Now
34 °F

Passing clouds.


Feels Like: 23 °F
Forecast: 36 / 41 °F
Wind: 17 mph from West

Location: Hessen

Current Time: Dec 20, 2014 at 8:24:31 AM

Latest Report: Dec 20, 2014 at 7:50 AM


Visibility: N/A

Pressure: 30.09 "Hg

Humidity: 93%

Dew point: 32 °F

Location of KreuztalLocation

Historic Weather in Kreuztal — Graph

°F

Kreuztal temperature yesterday

Maximum temperature yesterday: 46 °F (at 11:50 AM)
Minimum temperature yesterday: 37 °F (at 6:50 PM)
Average temperature yesterday: 43 °F

Past Weeks' High & Low Weather Summary

 TemperatureHumidityPressure
High50 °F (Dec 18, 6:50 PM)100% (Dec 4, 8:50 PM)30.33 "Hg (Dec 4, 8:50 PM)
Low30 °F (Dec 4, 8:50 PM)87% (Dec 7, 7:50 AM)29.47 "Hg (Dec 12, 3:20 PM)
Average36 °F98%29.91 "Hg
* Reported Dec 4 8:50 PM — Dec 19 8:50 PM, Kreuztal, Weather by CustomWeather, © 2014

Note: Actual official high and low records may vary slightly from our data, if they occured in-between our weather recording intervals... More about our weather records

Advertising

Kreuztal weather history for previous 24 hours

 ConditionsComfort  
Time TempWeatherWind HumidityBarometerVisibility
8:50 PM
Dec 19
37 °FPartly cloudy.20 mph93%30.01 "HgN/A
8:20 PM37 °FPassing clouds.20 mph93%29.98 "HgN/A
7:50 PM37 °FPassing clouds.21 mph93%29.98 "HgN/A
7:20 PM37 °FPassing clouds.20 mph93%29.95 "HgN/A
6:50 PM37 °FPassing clouds.18 mph93%29.95 "HgN/A
6:20 PM39 °FPassing clouds.23 mph93%29.92 "HgN/A
5:50 PM39 °FPartly cloudy.24 mph100%29.89 "HgN/A
5:20 PM41 °FPartly cloudy.23 mph100%29.89 "HgN/A
4:50 PM43 °FRain showers. Partly cloudy.21 mph100%29.89 "HgN/A
4:20 PM45 °FHeavy rain. Broken clouds.14 mph100%29.86 "Hg2 mi
3:50 PM45 °FRain. Broken clouds.18 mph100%29.86 "Hg2 mi
3:20 PM46 °FRain. Broken clouds.17 mph100%29.83 "Hg2 mi
2:50 PM46 °FRain. Fog.21 mph100%29.83 "Hg3 mi
2:20 PM46 °FRain. Fog.21 mph100%29.83 "Hg3 mi
1:50 PM46 °FRain. Fog.18 mph100%29.83 "Hg4 mi
1:20 PM46 °FRain. Fog.21 mph100%29.83 "Hg3 mi
12:50 PM46 °FRain. Fog.21 mph100%29.86 "Hg3 mi
12:20 PM46 °FRain. Partly sunny.20 mph100%29.86 "Hg4 mi
11:50 AM46 °FRain. Partly sunny.21 mph100%29.86 "Hg4 mi
10:50 AM45 °FRain. Fog.22 mph100%29.89 "Hg3 mi
10:20 AM45 °FRain. Fog.22 mph100%29.86 "Hg3 mi
9:50 AM45 °FRain. Fog.23 mph100%29.86 "Hg3 mi
9:20 AM45 °FRain. Fog.22 mph100%29.89 "Hg2 mi
8:50 AM45 °FRain. Fog.20 mph100%29.86 "Hg3 mi
8:20 AM45 °FRain. Fog.22 mph100%29.89 "Hg2 mi
Weather by CustomWeather, © 2014

See weather overviewHow to use our weather pages